Regional Weather Roundup
Issued by NWS

Home | Current Version | Previous Version | Graphics & Text | Print | Product List | Glossary On
Versions: 1 2 3 4 5 6 7 8 9 10 11 12 13 14 15 16 17 18 19 20 21 22 23 24 25 26 27 28 29 30 31 32 33 34 35 36 37 38 39 40 41 42 43 44 45 46 47 48 49 50
000
ASUS45 KABQ 202201
RWRNM
NEW MEXICO REGIONAL WEATHER ROUNDUP
NATIONAL WEATHER SERVICE ALBUQUERQUE NM
300 PM MST MON FEB 20 2017

NOTE: "FAIR" MEANS FEW OR NO CLOUDS BELOW 12,000 FEET AGL WITH NO
       SIGNIFICANT WEATHER OR OBSTRUCTIONS TO VISION.

      THIS PRODUCT IS RELEASED AS TWO VERSIONS.  ONE VERSION NEAR
      THE TOP OF THE HOUR CONTAINING PRELIMINARY DATA FROM ALBUQUERQUE
      AND OTHER STATIONS.  A FINAL VERSION WITH ADDITIONAL DATA IS
      ISSUED ABOUT 10 MINUTES AFTER THE HOUR.

NMZ501-503-504-510>518-202300-
NORTHWEST PLATEAU/NORTHCENTRAL MOUNTAINS

CITY           SKY/WX    TMP DP  RH WIND       PRES   REMARKS
FARMINGTON     FAIR      54  31  41 W12G17    30.20F
LOS ALAMOS     FAIR      53  16  23 NE6       30.21S
SANTA FE       FAIR      58  17  20 N17       30.17F
TAOS             N/A     50  21  32 S7        30.20S
ANGEL FIRE     FAIR      45  17  32 W21G28    30.21R

$$
NMZ402-403-502-505>509-202300-
WESTCENTRAL MOUNTAINS/SOUTHWEST MOUNTAINS

CITY           SKY/WX    TMP DP  RH WIND       PRES   REMARKS
GALLUP         FAIR      47  34  60 SW9       30.28S
GRANTS         FAIR      56  19  23 N15G23    30.25R
SILVER CITY    FAIR      58  33  38 NW10      30.23F

$$
NMZ407-409-411-412-202300-
SOUTHERN DESERTS

CITY           SKY/WX    TMP DP  RH WIND       PRES   REMARKS
DEMING         FAIR      61  34  36 SW10G18   30.21S
LAS CRUCES     FAIR      64  23  21 NW8       30.21S
HOLLOMAN AFB   FAIR      64  27  24 NW14G20   30.19R
ALAMOGORDO     FAIR      64  27  24 NW9G21    30.16S
T OR C         FAIR      62  28  27 VRB5      30.19S

$$
NMZ519>523-202300-
CENTRAL VALLEYS/CENTRAL HIGHLANDS

CITY           SKY/WX    TMP DP  RH WIND       PRES   REMARKS
ALBUQUERQUE    FAIR      59  24  26 N16G25    30.18F
DOUBLE EAGLE   SUNNY     57  28  33 NW20      30.20F
MORIARTY ARPT  FAIR      60  23  24 NW16G24   30.19R
CLINES CORNERS FAIR      53  21  28 NW18G25   30.19R
BELEN          FAIR      61  24  24 NW14G20   30.19F
SOCORRO        FAIR      63  24  22 NW10      30.18F

$$
NMZ524>526-539-540-202300-
SOUTHCENTRAL MOUNTAINS

CITY           SKY/WX    TMP DP  RH WIND       PRES   REMARKS
RUIDOSO        NOT AVBL

$$
NMZ527>531-202300-
NORTHEAST HIGHLANDS/NORTHEAST PLAINS

CITY           SKY/WX    TMP DP  RH WIND       PRES   REMARKS
LAS VEGAS      FAIR      58   9  14 N26G35    30.13S
RATON          FAIR      61   6  11 S6        30.05F
CLAYTON        FAIR      65   6  10 N17G24    30.04R

$$
NMZ532>537-202300-
EASTCENTRAL PLAINS

CITY           SKY/WX    TMP DP  RH WIND       PRES   REMARKS
TUCUMCARI      FAIR      70  12  10 NW10      30.02S
CANNON AFB     FAIR      66  17  15 N10       30.05R
CLOVIS AIRPORT FAIR      66  25  20 NW10G18   30.06R

$$
NMZ028-029-538-202300-
SOUTHEAST PLAINS

CITY           SKY/WX    TMP DP  RH WIND       PRES   REMARKS
ROSWELL        FAIR      73  14  10 N15         N/A
ARTESIA        FAIR      70  25  18 N16       30.07S
CARLSBAD       FAIR      71  26  18 NW13G22   30.06S
HOBBS          MOSUNNY   68  25  19 NW15G22   30.06R


$$




USA.gov is the U.S. government's official web portal to all federal, state and local government web resources and services.